sat.trackr.live / text

‹ back to catalog

STARLINK-30248

NORAD 57610 · 2023-119J

PAYLOAD ACTIVE UNKNOWN

§ Identity

Operator
Country
US
Launch date
2023-08-11
Launch site
AFETR
Launch vehicle
Mass (kg)
RCS (m²)

Purposes: comms

External: N2YO · Heavens-Above · Gunter

§ Orbital elements

Epoch: 2026-05-25T00:20:35.480256Z

Period
94.27 min
Inclination
43.0040°
Eccentricity
0.0001377
Mean motion
15.27578516 rev/d
Perigee alt
482.1 km
Apogee alt
484.0 km
Semi-major
6,861.2 km
B*
1.1169e-5
RAAN
10.1591°
Arg perigee
260.0232°
Mean anomaly
100.0464°
Rev number
15,476

§ Raw data

STARLINK-302481 57610U 23119J   26145.01429954  .00000045  00000+0  11169-4 0  99972 57610  43.0040  10.1591 0001377 260.0232 100.0464 15.27578516154767

JSON: /api/v1/satellites/57610 · /tle

For live sub-satellite position, see the globe view (requires WebGL).

§ Visibility from observer

Set your observer location to see the next 7 days of passes ≥ 10°. The values pass through the URL so the page stays shareable.

No JS? Fill the form by hand. The geolocation button needs JavaScript.